Tracking 27188 objects as of 1-Apr-2023
HD Live streaming from Space Station
objects crossing your sky now

STARLINK-5683

Track STARLINK-5683 now!
10-day predictions
STARLINK-5683 is classified as:


NORAD ID: 55452
Int'l Code: 2023-015D
Perigee: 455.2 km
Apogee: 457.0 km
Inclination: 43.0 °
Period: 93.6 minutes
Semi major axis: 6827 km
RCS: Unknown
Launch date: February 2, 2023
Source: United States (US)
Launch site: AIR FORCE EASTERN TEST RANGE (AFETR)
Your satellite tracking list
Your tracking list is empty




NASA's NSSDC Master Catalog

Two Line Element Set (TLE):
1 55452U 23015D   23090.91667824 -.00919687  00000-0 -25369-1 0  9997
2 55452  43.0011  43.9379 0001330 256.4171  14.4294 15.39021274  9186
Source of the keplerian elements: AFSPC